Location: Arrodets-la-Barthe
(43.0306°N, 0.2829°E)
Time: 01:14:10
(UTC+00:00)

Cosmos 2344 - Pass Details

Date: 01 June 2022
Orbit: 1228 x 3015 km, 63.3° (Epoch: 04 July)

Event Time Altitude Azimuth Distance (km) Brightness Sun altitude
Rises 00:08:54 0° 304° (NW) 4,191 6.7 -24.9°
Reaches altitude 10° 00:12:36 10° 323° (NW) 3,314 6.4 -24.8°
Maximum altitude 00:18:00 19° 7° (N) 2,888 6.3 -24.8°
Drops below altitude 10° 00:24:13 10° 51° (NE) 3,888 6.7 -24.6°
Sets 00:29:08 0° 68° (ENE) 5,197 7.2 -24.5°
